Terminal Aerodrome Forecast
Issued by NWS Louisville, KY

Home | Current Version | Previous Version | Text Only | Print | Product List | Glossary On
Versions: 1 2 3 4 5 6 7 8 9 10 11 12 13 14 15 16 17 18 19 20 21 22 23
000
FTUS43 KLMK 291400 AAA
TAFSDF
TAF AMD
KSDF 291417Z 2914/3018 24012G20KT P6SM BKN022
     FM291600 24013G21KT P6SM VCTS SCT035CB BKN250
     FM291800 24012G20KT P6SM SCT035 BKN100
     FM300100 22005KT P6SM SCT040 SCT100=

USA.gov is the U.S. government's official web portal to all federal, state and local government web resources and services.